AMQ587 LBWN-EPKT

Flight info

Callsign AMQ587
Flight time 1h 30m
Altitude 34000
Route BALIK L619 ARGES DCT ASNEL DCT STJ DCT TGM DCT KARIL DCT LENOV
Aircraft A321/M-SDE3FGHIRWY/LB1

Departure

Time 2026-05-06 00:25
Airport Varna Airport (LBWN)

Arrival

Time 2026-05-06 01:56
Airport Katowice Wojciech Korfanty International Airport (EPKT)
Time Latitude Longitude Altitude Speed Heading
2026-05-06 00:04 43.23489 27.82804 231 ft 0 kts 220°
2026-05-06 00:21 43.23445 27.82818 231 ft 14 kts 126°
2026-05-06 00:22 43.23421 27.82955 232 ft 15 kts 97°
2026-05-06 00:22 43.23404 27.83152 232 ft 25 kts 97°
2026-05-06 00:22 43.23385 27.83312 233 ft 25 kts 105°
2026-05-06 00:22 43.23356 27.83545 234 ft 25 kts 97°
2026-05-06 00:23 43.23335 27.83776 235 ft 21 kts 97°
2026-05-06 00:23 43.23319 27.83949 236 ft 18 kts 101°
2026-05-06 00:23 43.23247 27.84076 237 ft 17 kts 155°
2026-05-06 00:23 43.23136 27.84069 236 ft 17 kts 209°
2026-05-06 00:24 43.23067 27.83954 239 ft 16 kts 271°
2026-05-06 00:24 43.23075 27.83881 236 ft 0 kts 276°
2026-05-06 00:24 43.23075 27.83874 236 ft 5 kts 276°
2026-05-06 00:24 43.23110 27.83485 237 ft 80 kts 277°
2026-05-06 00:25 43.23205 27.82427 230 ft 141 kts 277°
2026-05-06 00:25 43.23374 27.80925 528 ft 160 kts 280°
2026-05-06 00:25 43.23522 27.79474 1310 ft 153 kts 278°
2026-05-06 00:25 43.23661 27.78022 1939 ft 155 kts 276°
2026-05-06 00:26 43.23955 27.76550 2166 ft 174 kts 309°
2026-05-06 00:26 43.24973 27.75425 2365 ft 213 kts 326°
2026-05-06 00:26 43.26249 27.74104 2916 ft 243 kts 322°
2026-05-06 00:26 43.27571 27.72621 3719 ft 259 kts 321°
2026-05-06 00:27 43.29011 27.70967 4637 ft 265 kts 322°
2026-05-06 00:27 43.30432 27.69327 5403 ft 268 kts 322°
2026-05-06 00:27 43.31859 27.67681 6246 ft 268 kts 323°
2026-05-06 00:27 43.33286 27.66044 7070 ft 267 kts 324°
2026-05-06 00:28 43.34717 27.64409 7837 ft 269 kts 324°
2026-05-06 00:28 43.36144 27.62784 8585 ft 270 kts 324°
2026-05-06 00:28 43.37619 27.61108 9355 ft 272 kts 324°
2026-05-06 00:28 43.39083 27.59443 10088 ft 275 kts 324°
2026-05-06 00:29 43.40578 27.57747 10416 ft 292 kts 324°
2026-05-06 00:29 43.42208 27.55902 10549 ft 315 kts 323°
2026-05-06 00:29 43.43957 27.53928 10676 ft 336 kts 324°
2026-05-06 00:29 43.45838 27.51921 11042 ft 346 kts 326°
2026-05-06 00:30 43.47787 27.49946 11629 ft 350 kts 327°
2026-05-06 00:30 43.49777 27.47979 12236 ft 354 kts 327°
2026-05-06 00:30 43.51794 27.45996 12850 ft 358 kts 327°
2026-05-06 00:30 43.53826 27.43987 13476 ft 362 kts 327°
2026-05-06 00:31 43.55876 27.41942 14066 ft 365 kts 327°
2026-05-06 00:31 43.57941 27.39864 14600 ft 369 kts 326°
2026-05-06 00:31 43.60017 27.37765 15158 ft 372 kts 326°
2026-05-06 00:31 43.62109 27.35647 15702 ft 374 kts 326°
2026-05-06 00:32 43.64217 27.33510 16237 ft 377 kts 326°
2026-05-06 00:32 43.66317 27.31377 16760 ft 380 kts 326°
2026-05-06 00:32 43.68446 27.29185 17279 ft 384 kts 324°
2026-05-06 00:32 43.70543 27.26873 17768 ft 387 kts 322°
2026-05-06 00:33 43.72614 27.24475 18283 ft 390 kts 322°
2026-05-06 00:33 43.74681 27.22020 18733 ft 393 kts 321°
2026-05-06 00:33 43.76754 27.19544 19173 ft 395 kts 321°
2026-05-06 00:33 43.78848 27.17061 19635 ft 397 kts 321°
2026-05-06 00:34 43.80954 27.14586 20064 ft 399 kts 322°
2026-05-06 00:34 43.83082 27.12104 20500 ft 401 kts 322°
2026-05-06 00:34 43.85226 27.09613 20935 ft 403 kts 322°
2026-05-06 00:34 43.87381 27.07110 21354 ft 406 kts 322°
2026-05-06 00:35 43.89549 27.04583 21770 ft 408 kts 322°
2026-05-06 00:35 43.91559 27.02236 22176 ft 410 kts 322°
2026-05-06 00:35 43.93747 26.99683 22608 ft 413 kts 322°
2026-05-06 00:35 43.95950 26.97113 23035 ft 415 kts 322°
2026-05-06 00:36 43.98163 26.94526 23448 ft 417 kts 322°
2026-05-06 00:36 44.00381 26.91923 23815 ft 419 kts 322°
2026-05-06 00:36 44.02610 26.89298 24157 ft 421 kts 321°
2026-05-06 00:36 44.04850 26.86657 24485 ft 423 kts 321°
2026-05-06 00:37 44.07098 26.84004 24817 ft 425 kts 321°
2026-05-06 00:37 44.09367 26.81348 25157 ft 426 kts 322°
2026-05-06 00:37 44.11653 26.78792 25471 ft 428 kts 323°
2026-05-06 00:37 44.14040 26.76219 25822 ft 429 kts 324°
2026-05-06 00:38 44.16422 26.73694 26134 ft 431 kts 324°
2026-05-06 00:38 44.18818 26.71154 26431 ft 434 kts 324°
2026-05-06 00:38 44.21213 26.68595 26741 ft 435 kts 324°
2026-05-06 00:38 44.23583 26.66036 27036 ft 437 kts 324°
2026-05-06 00:39 44.25983 26.63419 27342 ft 439 kts 323°
2026-05-06 00:39 44.28390 26.60780 27647 ft 441 kts 323°
2026-05-06 00:39 44.30809 26.58126 27943 ft 443 kts 323°
2026-05-06 00:39 44.33234 26.55469 28235 ft 444 kts 324°
2026-05-06 00:40 44.35664 26.52806 28631 ft 443 kts 324°
2026-05-06 00:40 44.38082 26.50153 29040 ft 442 kts 324°
2026-05-06 00:40 44.40497 26.47501 29450 ft 441 kts 324°
2026-05-06 00:40 44.42907 26.44849 29850 ft 439 kts 324°
2026-05-06 00:41 44.45310 26.42208 30197 ft 439 kts 324°
2026-05-06 00:41 44.47709 26.39574 30515 ft 438 kts 324°
2026-05-06 00:41 44.50098 26.36949 30865 ft 436 kts 323°
2026-05-06 00:41 44.52482 26.34323 31213 ft 435 kts 323°
2026-05-06 00:42 44.54926 26.31846 31546 ft 433 kts 328°
2026-05-06 00:42 44.57441 26.29538 31879 ft 432 kts 328°
2026-05-06 00:42 44.59954 26.27235 32235 ft 431 kts 328°
2026-05-06 00:42 44.62459 26.24937 32567 ft 430 kts 328°
2026-05-06 00:43 44.64957 26.22639 32915 ft 429 kts 328°
2026-05-06 00:43 44.67444 26.20345 33218 ft 428 kts 328°
2026-05-06 00:43 44.69932 26.18043 33568 ft 427 kts 328°
2026-05-06 00:43 44.72403 26.15757 33907 ft 426 kts 328°
2026-05-06 00:44 44.74882 26.13465 34017 ft 425 kts 328°
2026-05-06 00:44 44.79809 26.08917 34023 ft 422 kts 328°
2026-05-06 00:45 44.84675 26.04405 34021 ft 422 kts 328°
2026-05-06 00:45 44.89568 25.99845 34011 ft 422 kts 327°
2026-05-06 00:46 44.94414 25.95185 34028 ft 421 kts 325°
2026-05-06 00:46 44.99106 25.90210 34038 ft 422 kts 324°
2026-05-06 00:47 45.03752 25.85150 34025 ft 422 kts 324°
2026-05-06 00:47 45.08435 25.80129 34037 ft 422 kts 324°
2026-05-06 00:48 45.13133 25.75138 34018 ft 422 kts 324°
2026-05-06 00:48 45.17831 25.70136 34027 ft 422 kts 324°
2026-05-06 00:49 45.22521 25.65135 34036 ft 422 kts 324°
2026-05-06 00:49 45.27212 25.60114 34044 ft 422 kts 324°
2026-05-06 00:50 45.31898 25.55087 34024 ft 422 kts 324°
2026-05-06 00:50 45.36585 25.50043 34030 ft 422 kts 324°
2026-05-06 00:51 45.41273 25.44991 34035 ft 423 kts 324°
2026-05-06 00:51 45.45956 25.39925 34040 ft 423 kts 324°
2026-05-06 00:52 45.50639 25.34847 34037 ft 423 kts 324°
2026-05-06 00:52 45.55291 25.29805 34017 ft 422 kts 323°
2026-05-06 00:53 45.59968 25.24723 34023 ft 422 kts 324°
2026-05-06 00:53 45.64641 25.19626 34019 ft 422 kts 324°
2026-05-06 00:54 45.69310 25.14524 34012 ft 423 kts 324°
2026-05-06 00:54 45.73986 25.09423 33995 ft 423 kts 323°
2026-05-06 00:55 45.78658 25.04301 33998 ft 423 kts 323°
2026-05-06 00:55 45.83336 24.99154 33991 ft 424 kts 323°
2026-05-06 00:56 45.88015 24.93997 33999 ft 424 kts 323°
2026-05-06 00:56 45.92704 24.88829 33998 ft 425 kts 323°
2026-05-06 00:57 45.97367 24.83674 33997 ft 425 kts 323°
2026-05-06 00:57 46.02056 24.78475 33994 ft 426 kts 323°
2026-05-06 00:58 46.06742 24.73261 33996 ft 426 kts 323°
2026-05-06 00:58 46.11437 24.68041 33996 ft 426 kts 323°
2026-05-06 00:59 46.16125 24.62812 33998 ft 426 kts 322°
2026-05-06 00:59 46.20808 24.57562 33992 ft 426 kts 322°
2026-05-06 01:00 46.25496 24.52309 33992 ft 427 kts 322°
2026-05-06 01:00 46.30191 24.47044 34000 ft 427 kts 322°
2026-05-06 01:01 46.34879 24.41768 34001 ft 427 kts 322°
2026-05-06 01:01 46.39529 24.36521 34000 ft 427 kts 322°
2026-05-06 01:02 46.44208 24.31225 34003 ft 427 kts 321°
2026-05-06 01:02 46.48709 24.25620 34000 ft 427 kts 317°
2026-05-06 01:03 46.53022 24.19691 33991 ft 427 kts 316°
2026-05-06 01:03 46.57315 24.13745 33991 ft 427 kts 317°
2026-05-06 01:04 46.61657 24.07859 33984 ft 427 kts 317°
2026-05-06 01:04 46.66033 24.02006 33983 ft 427 kts 317°
2026-05-06 01:05 46.70405 23.96136 33985 ft 428 kts 317°
2026-05-06 01:05 46.74767 23.90235 33986 ft 428 kts 317°
2026-05-06 01:06 46.79122 23.84303 33992 ft 428 kts 316°
2026-05-06 01:06 46.83476 23.78364 33984 ft 429 kts 317°
2026-05-06 01:07 46.87786 23.72486 33980 ft 430 kts 317°
2026-05-06 01:07 46.92157 23.66518 33983 ft 430 kts 317°
2026-05-06 01:08 46.96531 23.60542 33983 ft 430 kts 316°
2026-05-06 01:08 47.00902 23.54537 33973 ft 431 kts 316°
2026-05-06 01:09 47.05280 23.48506 33968 ft 432 kts 316°
2026-05-06 01:09 47.09664 23.42453 33965 ft 433 kts 316°
2026-05-06 01:10 47.14050 23.36383 33970 ft 434 kts 316°
2026-05-06 01:10 47.18438 23.30301 33973 ft 434 kts 316°
2026-05-06 01:11 47.22822 23.24195 33961 ft 434 kts 316°
2026-05-06 01:11 47.27202 23.18083 33961 ft 434 kts 316°
2026-05-06 01:12 47.31589 23.11952 33957 ft 435 kts 316°
2026-05-06 01:12 47.35984 23.05816 33961 ft 435 kts 316°
2026-05-06 01:13 47.40356 22.99703 33969 ft 436 kts 316°
2026-05-06 01:13 47.44741 22.93532 33969 ft 436 kts 315°
2026-05-06 01:14 47.51311 22.84254 33971 ft 435 kts 315°
2026-05-06 01:14 47.55690 22.78058 33971 ft 435 kts 315°
2026-05-06 01:15 47.60055 22.71862 33973 ft 435 kts 315°
2026-05-06 01:15 47.64413 22.65652 33965 ft 434 kts 315°
2026-05-06 01:16 47.68033 22.60492 33963 ft 434 kts 315°
2026-05-06 01:16 47.72384 22.54271 33957 ft 434 kts 315°
2026-05-06 01:17 47.76734 22.48049 33936 ft 434 kts 315°
2026-05-06 01:17 47.81421 22.42402 33936 ft 435 kts 328°
2026-05-06 01:18 47.86613 22.37758 33934 ft 435 kts 328°
2026-05-06 01:18 47.91808 22.33090 33927 ft 435 kts 328°
2026-05-06 01:19 47.96991 22.28416 33924 ft 436 kts 328°
2026-05-06 01:19 48.02174 22.23724 33929 ft 436 kts 327°
2026-05-06 01:20 48.07363 22.19009 33925 ft 436 kts 327°
2026-05-06 01:20 48.12522 22.14331 33922 ft 436 kts 327°
2026-05-06 01:21 48.17714 22.09621 33919 ft 437 kts 327°
2026-05-06 01:21 48.22905 22.04880 33913 ft 437 kts 327°
2026-05-06 01:22 48.28091 22.00127 33922 ft 437 kts 327°
2026-05-06 01:22 48.33283 21.95373 33918 ft 437 kts 327°
2026-05-06 01:23 48.38479 21.90607 33908 ft 437 kts 327°
2026-05-06 01:23 48.43675 21.85834 33906 ft 437 kts 327°
2026-05-06 01:24 48.48864 21.81037 33913 ft 437 kts 327°
2026-05-06 01:24 48.54017 21.76253 33907 ft 437 kts 327°
2026-05-06 01:25 48.59197 21.71441 33908 ft 438 kts 327°
2026-05-06 01:25 48.64384 21.66616 33909 ft 438 kts 327°
2026-05-06 01:26 48.69573 21.61778 33909 ft 438 kts 327°
2026-05-06 01:26 48.74757 21.56934 33902 ft 438 kts 327°
2026-05-06 01:27 48.79943 21.52078 33904 ft 438 kts 327°
2026-05-06 01:27 48.85097 21.47245 33921 ft 438 kts 327°
2026-05-06 01:28 48.90290 21.42369 33334 ft 440 kts 326°
2026-05-06 01:28 48.92894 21.39914 32819 ft 440 kts 326°
2026-05-06 01:28 48.95498 21.37448 32309 ft 441 kts 326°
2026-05-06 01:29 48.98105 21.34972 31814 ft 443 kts 326°
2026-05-06 01:29 49.00718 21.32490 31329 ft 444 kts 326°
2026-05-06 01:29 49.03345 21.29995 30849 ft 445 kts 326°
2026-05-06 01:29 49.05981 21.27492 30376 ft 447 kts 327°
2026-05-06 01:30 49.08618 21.24987 29908 ft 448 kts 327°
2026-05-06 01:30 49.11270 21.22464 29356 ft 449 kts 326°
2026-05-06 01:30 49.13929 21.19931 28835 ft 450 kts 326°
2026-05-06 01:30 49.16592 21.17388 28312 ft 452 kts 326°
2026-05-06 01:31 49.19263 21.14836 27793 ft 453 kts 326°
2026-05-06 01:31 49.21936 21.12280 27291 ft 455 kts 326°
2026-05-06 01:31 49.24627 21.09706 26796 ft 454 kts 326°
2026-05-06 01:31 49.27302 21.07142 26311 ft 452 kts 326°
2026-05-06 01:32 49.29957 21.04591 25829 ft 450 kts 326°
2026-05-06 01:32 49.32511 21.01984 25366 ft 446 kts 320°
2026-05-06 01:32 49.34815 20.98829 24904 ft 441 kts 311°
2026-05-06 01:32 49.36812 20.95281 24452 ft 438 kts 308°
2026-05-06 01:33 49.38765 20.91704 24007 ft 436 kts 308°
2026-05-06 01:33 49.40713 20.88149 23565 ft 433 kts 307°
2026-05-06 01:33 49.42648 20.84618 23072 ft 431 kts 308°
2026-05-06 01:33 49.44576 20.81088 22548 ft 429 kts 308°
2026-05-06 01:34 49.46490 20.77581 22038 ft 427 kts 308°
2026-05-06 01:34 49.48390 20.74096 21540 ft 425 kts 308°
2026-05-06 01:34 49.50283 20.70618 21046 ft 422 kts 308°
2026-05-06 01:34 49.52165 20.67157 20565 ft 420 kts 308°
2026-05-06 01:35 49.54011 20.63762 20251 ft 419 kts 308°
2026-05-06 01:35 49.55875 20.60322 19955 ft 418 kts 307°
2026-05-06 01:35 49.57731 20.56885 19671 ft 417 kts 307°
2026-05-06 01:35 49.59581 20.53453 19369 ft 415 kts 307°
2026-05-06 01:36 49.61423 20.50032 19081 ft 414 kts 307°
2026-05-06 01:36 49.63260 20.46616 18805 ft 413 kts 307°
2026-05-06 01:36 49.65091 20.43211 18512 ft 412 kts 307°
2026-05-06 01:36 49.66921 20.39813 18230 ft 411 kts 307°
2026-05-06 01:37 49.68743 20.36426 17918 ft 409 kts 307°
2026-05-06 01:37 49.70551 20.33054 17602 ft 407 kts 307°
2026-05-06 01:37 49.72351 20.29685 17285 ft 405 kts 307°
2026-05-06 01:37 49.74143 20.26327 16981 ft 403 kts 307°
2026-05-06 01:38 49.76015 20.23093 16663 ft 404 kts 314°
2026-05-06 01:38 49.78202 20.20356 16357 ft 405 kts 324°
2026-05-06 01:38 49.80666 20.18222 16063 ft 407 kts 334°
2026-05-06 01:38 49.83334 20.16747 15754 ft 409 kts 343°
2026-05-06 01:39 49.86110 20.15774 15445 ft 408 kts 346°
2026-05-06 01:39 49.88873 20.14823 15149 ft 406 kts 346°
2026-05-06 01:39 49.91600 20.13701 14853 ft 403 kts 339°
2026-05-06 01:39 49.94150 20.11964 14558 ft 399 kts 329°
2026-05-06 01:40 49.96440 20.09675 14271 ft 395 kts 320°
2026-05-06 01:40 49.98487 20.06878 13986 ft 391 kts 313°
2026-05-06 01:40 50.00421 20.03918 13696 ft 389 kts 313°
2026-05-06 01:40 50.02350 20.00971 13394 ft 388 kts 313°
2026-05-06 01:41 50.04272 19.98039 13097 ft 387 kts 312°
2026-05-06 01:41 50.06188 19.95113 12781 ft 382 kts 312°
2026-05-06 01:41 50.08057 19.92256 12471 ft 372 kts 311°
2026-05-06 01:41 50.09879 19.89462 12169 ft 364 kts 311°
2026-05-06 01:42 50.11657 19.86728 11866 ft 355 kts 311°
2026-05-06 01:42 50.13394 19.84049 11558 ft 348 kts 311°
2026-05-06 01:42 50.15100 19.81414 11261 ft 342 kts 311°
2026-05-06 01:42 50.16772 19.78829 10964 ft 335 kts 311°
2026-05-06 01:43 50.18432 19.76319 10668 ft 330 kts 312°
2026-05-06 01:43 50.20091 19.73898 10375 ft 324 kts 312°
2026-05-06 01:43 50.21737 19.71535 10088 ft 318 kts 313°
2026-05-06 01:43 50.23353 19.69215 9800 ft 312 kts 312°
2026-05-06 01:44 50.24931 19.66934 9516 ft 307 kts 313°
2026-05-06 01:44 50.26486 19.64677 9201 ft 303 kts 312°
2026-05-06 01:44 50.27948 19.62373 8888 ft 294 kts 303°
2026-05-06 01:44 50.29005 19.59707 8582 ft 284 kts 288°
2026-05-06 01:45 50.29595 19.56831 8353 ft 274 kts 275°
2026-05-06 01:45 50.29754 19.53895 8232 ft 270 kts 265°
2026-05-06 01:45 50.29769 19.50961 8110 ft 269 kts 265°
2026-05-06 01:45 50.29791 19.48075 7983 ft 268 kts 265°
2026-05-06 01:46 50.29816 19.45228 7856 ft 256 kts 265°
2026-05-06 01:46 50.29856 19.42510 7725 ft 246 kts 269°
2026-05-06 01:46 50.30422 19.40000 7593 ft 251 kts 300°
2026-05-06 01:46 50.31819 19.38298 7459 ft 266 kts 336°
2026-05-06 01:47 50.33680 19.37934 7355 ft 274 kts 356°
2026-05-06 01:47 50.35587 19.38128 7226 ft 277 kts 14°
2026-05-06 01:47 50.37273 19.39539 7107 ft 277 kts 45°
2026-05-06 01:47 50.38353 19.41971 6982 ft 270 kts 75°
2026-05-06 01:48 50.38644 19.44804 6868 ft 261 kts 98°
2026-05-06 01:48 50.38784 19.47726 6690 ft 283 kts 77°
2026-05-06 01:48 50.39845 19.50318 6411 ft 287 kts 40°
2026-05-06 01:48 50.41618 19.51657 6011 ft 285 kts
2026-05-06 01:49 50.43494 19.51659 5937 ft 258 kts 342°
2026-05-06 01:49 50.45064 19.50731 5897 ft 226 kts 321°
2026-05-06 01:49 50.46095 19.49485 5773 ft 202 kts 304°
2026-05-06 01:49 50.46890 19.47830 5616 ft 180 kts 287°
2026-05-06 01:50 50.47327 19.46107 5430 ft 162 kts 272°
2026-05-06 01:50 50.47448 19.44398 5255 ft 158 kts 258°
2026-05-06 01:50 50.47453 19.42627 5050 ft 164 kts 260°
2026-05-06 01:50 50.47466 19.40835 4835 ft 165 kts 260°
2026-05-06 01:51 50.47478 19.39030 4622 ft 166 kts 260°
2026-05-06 01:51 50.47488 19.37227 4400 ft 165 kts 261°
2026-05-06 01:51 50.47497 19.35420 4178 ft 166 kts 261°
2026-05-06 01:51 50.47506 19.33614 3975 ft 165 kts 261°
2026-05-06 01:52 50.47514 19.31807 3748 ft 166 kts 262°
2026-05-06 01:52 50.47522 19.29985 3541 ft 168 kts 262°
2026-05-06 01:52 50.47531 19.28189 3314 ft 164 kts 261°
2026-05-06 01:52 50.47539 19.26423 3101 ft 160 kts 262°
2026-05-06 01:53 50.47547 19.24676 2887 ft 156 kts 262°
2026-05-06 01:53 50.47554 19.23010 2702 ft 148 kts 262°
2026-05-06 01:53 50.47560 19.21439 2508 ft 143 kts 263°
2026-05-06 01:53 50.47565 19.19869 2309 ft 141 kts 263°
2026-05-06 01:54 50.47570 19.18347 2119 ft 141 kts 263°
2026-05-06 01:54 50.47574 19.16802 1922 ft 142 kts 264°
2026-05-06 01:54 50.47579 19.15241 1727 ft 143 kts 265°
2026-05-06 01:54 50.47585 19.13657 1523 ft 146 kts 266°
2026-05-06 01:55 50.47589 19.12061 1322 ft 146 kts 267°
2026-05-06 01:55 50.47599 19.10473 1110 ft 146 kts 267°
2026-05-06 01:55 50.47599 19.08935 1000 ft 126 kts 267°
2026-05-06 01:55 50.47602 19.07885 988 ft 70 kts 269°
2026-05-06 01:56 50.47597 19.07345 993 ft 39 kts 269°
2026-05-06 01:56 50.47573 19.07092 992 ft 19 kts 251°
2026-05-06 01:56 50.47542 19.06978 991 ft 0 kts 239°
2026-05-06 01:58 50.47521 19.06929 989 ft 10 kts 237°
2026-05-06 01:58 50.47508 19.06897 992 ft 3 kts 239°
2026-05-06 01:58 50.47469 19.06793 987 ft 6 kts 239°
2026-05-06 01:58 50.47468 19.06790 987 ft 1 kts 239°
2026-05-06 01:59 50.47466 19.06786 986 ft 0 kts 239°
2026-05-06 02:00 50.47458 19.06766 987 ft 9 kts 239°
2026-05-06 02:00 50.47403 19.06647 987 ft 16 kts 215°
2026-05-06 02:00 50.47286 19.06632 985 ft 18 kts 169°
2026-05-06 02:00 50.47239 19.06786 981 ft 17 kts 92°
2026-05-06 02:01 50.47236 19.06982 985 ft 19 kts 90°
2026-05-06 02:01 50.47237 19.07042 985 ft 1 kts 89°
2026-05-06 02:01 50.47237 19.07056 984 ft 2 kts 89°
2026-05-06 02:01 50.47238 19.07162 984 ft 17 kts 89°
2026-05-06 02:02 50.47214 19.07272 990 ft 5 kts 187°
2026-05-06 02:02 50.47185 19.07268 989 ft 0 kts 177°